SR6WVX Weather Reports


time (UTC)temp
C
wind
direction
speed
KPH
gust
KPH
rain 1hr
cm
rain 24hr
cm
rain mn
cm
humidity
%
barometer
mb
20260507002414 12 45 0.0 0.0 0.20 1.12 0.00 93 1002.1
20260507001914 12 45 0.0 0.0 0.15 1.07 0.00 93 1002.2
20260507001413 12 45 0.0 0.0 0.15 1.07 0.00 93 1002.0
20260507000913 12 45 0.0 0.0 0.25 1.07 0.00 93 1001.7
20260507000413 12 45 0.0 0.0 0.25 1.07 0.00 93 1001.4
20260506235913 12 45 0.0 0.0 0.36 1.07 0.00 93 1001.4
20260506235412 12 45 0.0 0.0 0.41 1.07 0.00 93 1001.3
20260506234912 12 0 0.0 4.8 0.36 1.02 0.00 93 1001.2
20260506234412 12 22 4.8 4.8 0.41 1.02 0.00 93 1001.1
20260506233912 12 0 4.8 4.8 0.46 0.97 0.00 93 1001.2
20260506233411 12 0 0.0 0.0 0.51 0.97 0.00 93 1001.4
20260506232911 12 0 0.0 0.0 0.51 0.91 0.00 93 1001.6
20260506232411 13 0 0.0 0.0 0.51 0.91 0.00 93 1001.7
20260506231910 13 0 0.0 0.0 0.51 0.91 0.00 92 1001.7
20260506231410 13 0 0.0 0.0 0.46 0.86 0.00 92 1002.1
20260506230910 13 22 0.0 0.0 0.41 0.81 0.00 92 1001.8
20260506230410 13 22 0.0 0.0 0.30 0.71 0.00 92 1002.1
20260506225909 13 22 0.0 0.0 0.30 0.71 0.00 92 1002.2
20260506225409 13 22 0.0 0.0 0.25 0.66 0.00 92 1002.2
20260506224909 13 22 0.0 0.0 0.20 0.61 0.00 92 1001.9
20260506224409 13 22 0.0 0.0 0.15 0.56 0.00 92 1001.5
20260506223908 13 0 0.0 0.0 0.10 0.51 0.00 92 1001.4
20260506223408 13 0 0.0 0.0 0.05 0.46 0.00 92 1001.4
20260506222908 13 45 0.0 0.0 0.00 0.41 0.00 92 1001.8
20260506222408 13 67 0.0 0.0 0.00 0.41 0.00 92 1001.6
20260506221907 13 67 0.0 0.0 0.00 0.41 0.00 92 1001.5
20260506221407 13 67 0.0 0.0 0.00 0.41 0.00 92 1001.4
20260506220907 13 67 0.0 0.0 0.00 0.41 0.00 91 1001.4
20260506220407 13 67 0.0 0.0 0.00 0.41 0.00 91 1001.5
20260506215906 13 67 0.0 0.0 0.05 0.41 0.00 91 1001.5
20260506215406 13 67 0.0 0.0 0.05 0.41 0.00 91 1001.3
20260506214906 13 45 0.0 0.0 0.05 0.41 0.00 91 1001.3
20260506214405 13 45 0.0 0.0 0.05 0.41 0.00 91 1001.2
20260506213905 13 45 0.0 0.0 0.05 0.41 0.00 91 1001.3
20260506213405 13 45 0.0 0.0 0.05 0.41 0.00 91 1001.3
20260506212905 13 45 0.0 0.0 0.05 0.41 0.00 91 1001.4
20260506212404 13 45 0.0 0.0 0.05 0.41 0.00 91 1001.3
20260506211904 13 45 0.0 0.0 0.10 0.41 0.00 91 1001.3
20260506211404 13 45 0.0 0.0 0.10 0.41 0.00 91 1001.3
20260506210904 13 67 0.0 0.0 0.10 0.41 0.00 91 1001.0
20260506210403 13 67 0.0 0.0 0.05 0.36 0.00 91 1000.9
20260506205903 13 45 0.0 4.8 0.10 0.36 0.00 91 1000.7
20260506205403 13 45 0.0 0.0 0.10 0.36 0.00 91 1000.7
20260506204903 13 45 0.0 0.0 0.20 0.36 0.00 90 1000.6
20260506204402 13 337 0.0 0.0 0.20 0.36 0.00 90 1000.8
20260506203902 13 337 0.0 0.0 0.20 0.36 0.00 90 1001.0
20260506203402 13 337 0.0 0.0 0.20 0.36 0.00 90 1001.1
20260506202901 13 337 0.0 0.0 0.20 0.36 0.00 90 1001.0
20260506202401 13 0 0.0 0.0 0.15 0.30 0.00 90 1000.9
20260506201901 13 22 0.0 0.0 0.20 0.30 0.00 89 1000.6
20260506201401 13 45 0.0 0.0 0.20 0.30 0.00 89 1000.9
20260506200900 13 112 0.0 0.0 0.20 0.30 0.00 88 1001.0
20260506200400 13 112 0.0 0.0 0.15 0.25 0.00 87 1001.2
20260506195900 13 112 0.0 0.0 0.15 0.25 0.00 87 1001.3
20260506195400 13 112 0.0 0.0 0.10 0.15 0.00 87 1001.3
20260506194859 13 112 0.0 0.0 0.10 0.15 0.00 87 1001.3
20260506194359 13 112 0.0 0.0 0.10 0.15 0.00 87 1001.4
20260506193859 13 135 0.0 0.0 0.15 0.15 0.00 86 1001.7
20260506193359 13 135 0.0 0.0 0.15 0.15 0.00 86 1001.6
20260506192858 13 135 0.0 0.0 0.15 0.15 0.00 86 1001.6
20260506192358 13 135 0.0 0.0 0.10 0.10 0.00 86 1001.4
20260506191858 13 135 0.0 0.0 0.10 0.10 0.00 86 1001.4
20260506191358 13 135 0.0 0.0 0.10 0.10 0.00 86 1001.6
20260506190857 13 135 0.0 0.0 0.10 0.10 0.00 85 1001.6
20260506190357 13 90 0.0 0.0 0.10 0.10 0.00 85 1001.6
20260506185857 14 90 0.0 0.0 0.10 0.10 0.00 85 1001.4
20260506185356 14 90 0.0 0.0 0.05 0.05 0.00 83 1001.1
20260506184856 14 135 0.0 0.0 0.05 0.05 0.00 83 1001.1
20260506184356 14 135 0.0 0.0 0.05 0.05 0.00 83 1001.0
20260506183856 14 135 0.0 0.0 0.00 0.00 0.00 82 1000.9
20260506183355 14 135 0.0 0.0 0.00 0.00 0.00 82 1000.9
20260506182855 14 112 0.0 0.0 0.00 0.00 0.00 82 1000.7
20260506182355 14 157 0.0 0.0 0.00 0.00 0.00 82 1000.7
20260506181855 14 135 0.0 0.0 0.00 0.00 0.00 82 1000.4
20260506181354 14 112 0.0 0.0 0.00 0.00 0.00 82 1000.2
20260506180854 14 67 0.0 0.0 0.00 0.00 0.00 79 999.9
20260506180354 14 67 0.0 0.0 0.00 0.00 0.00 79 999.9
20260506175854 14 67 0.0 0.0 0.00 0.00 0.00 79 1000.0
20260506175353 14 67 0.0 0.0 0.00 0.00 0.00 77 1000.0
20260506174853 15 135 0.0 0.0 0.00 0.00 0.00 75 999.9
20260506174353 15 112 0.0 0.0 0.00 0.00 0.00 75 999.9
20260506173852 15 135 0.0 0.0 0.00 0.00 0.00 73 999.7
20260506173352 16 90 0.0 0.0 0.00 0.00 0.00 71 999.7
20260506172852 17 112 0.0 6.4 0.00 0.00 0.00 67 999.6
20260506172352 18 112 0.0 3.2 0.00 0.00 0.00 59 999.2
20260506171851 20 135 0.0 6.4 0.00 0.00 0.00 53 999.5
20260506171351 21 67 3.2 4.8 0.00 0.00 0.00 49 999.5
20260506170851 21 315 0.0 9.7 0.00 0.00 0.00 47 999.2
20260506170351 22 270 9.7 9.7 0.00 0.00 0.00 46 999.1
20260506165850 22 270 3.2 16.1 0.00 0.00 0.00 46 999.2
20260506165350 23 270 3.2 8.0 0.00 0.00 0.00 44 999.1
20260506164850 23 270 8.0 8.0 0.00 0.00 0.00 43 999.0
20260506164350 24 270 0.0 6.4 0.00 0.00 0.00 41 999.0
20260506163849 25 315 0.0 12.9 0.00 0.00 0.00 39 999.0
20260506163349 26 270 0.0 9.7 0.00 0.00 0.00 38 999.1
20260506162849 26 270 9.7 9.7 0.00 0.00 0.00 37 999.1
20260506162349 27 270 0.0 9.7 0.00 0.00 0.00 36 999.3
20260506161848 27 270 9.7 9.7 0.00 0.00 0.00 36 999.2
20260506161348 27 292 0.0 0.0 0.00 0.00 0.00 36 999.3
20260506160848 27 225 0.0 0.0 0.00 0.00 0.00 34 999.3
20260506160348 28 247 0.0 3.2 0.00 0.00 0.00 33 999.3
20260506155847 28 180 0.0 0.0 0.00 0.00 0.00 34 999.2
20260506155347 30 270 0.0 0.0 0.00 0.00 0.00 32 999.1
20260506154847 30 157 0.0 0.0 0.00 0.00 0.00 32 999.2
20260506154346 30 202 0.0 6.4 0.00 0.00 0.00 32 999.2
20260506153846 30 157 0.0 0.0 0.00 0.00 0.00 33 999.4
20260506153346 28 157 0.0 0.0 0.00 0.00 0.00 35 999.4
20260506152846 27 157 0.0 0.0 0.00 0.00 0.00 35 999.3
20260506152345 28 180 0.0 0.0 0.00 0.00 0.00 34 999.3
20260506151845 27 157 0.0 8.0 0.00 0.00 0.00 34 999.4
20260506151345 28 180 8.0 8.0 0.00 0.00 0.00 34 999.4
20260506150845 28 157 0.0 0.0 0.00 0.00 0.00 34 999.4
20260506150344 28 180 0.0 11.3 0.00 0.00 0.00 34 999.5
20260506145844 27 157 0.0 0.0 0.00 0.00 0.00 35 999.5
20260506145344 27 202 0.0 8.0 0.00 0.00 0.00 35 999.4
20260506144844 27 202 0.0 11.3 0.00 0.00 0.00 35 999.6
20260506144343 27 180 11.3 14.5 0.00 0.00 0.00 36 999.6
20260506143843 27 180 14.5 14.5 0.00 0.00 0.00 35 999.4
20260506143343 27 157 8.0 9.7 0.00 0.00 0.00 35 999.5
20260506142842 27 202 0.0 14.5 0.00 0.00 0.00 35 999.5
20260506142342 27 157 14.5 14.5 0.00 0.00 0.00 35 999.7
20260506141842 27 247 9.7 14.5 0.00 0.00 0.00 36 999.8
20260506141342 27 157 14.5 14.5 0.00 0.00 0.00 36 999.8
20260506140841 26 67 1.6 1.6 0.00 0.00 0.00 35 1000.0
20260506140341 27 135 0.0 4.8 0.00 0.00 0.00 35 999.8
20260506135841 27 247 4.8 6.4 0.00 0.00 0.00 37 1000.0
20260506135341 26 157 6.4 12.9 0.00 0.00 0.00 40 1000.0
20260506134840 26 180 12.9 12.9 0.00 0.00 0.00 41 999.9
20260506134340 25 225 0.0 0.0 0.00 0.00 0.00 40 1000.0
20260506133840 26 157 0.0 0.0 0.00 0.00 0.00 40 999.9
20260506133340 26 225 0.0 12.9 0.00 0.00 0.00 39 1000.1
20260506132839 26 225 0.0 9.7 0.00 0.00 0.00 40 1000.0
20260506132339 26 225 0.0 11.3 0.00 0.00 0.00 40 1000.0
20260506131839 26 157 11.3 11.3 0.00 0.00 0.00 39 1000.0
20260506131338 26 180 0.0 0.0 0.00 0.00 0.00 39 1000.0
20260506130838 26 112 0.0 0.0 0.00 0.00 0.00 41 1000.1
20260506130338 25 202 0.0 16.1 0.00 0.00 0.00 42 1000.2
20260506125838 25 180 16.1 16.1 0.00 0.00 0.00 42 1000.2
20260506125337 25 180 0.0 0.0 0.00 0.00 0.00 41 1000.2
20260506124837 25 202 0.0 3.2 0.00 0.00 0.00 42 1000.1
20260506124337 25 180 3.2 3.2 0.00 0.00 0.00 41 1000.1
20260506123837 25 202 0.0 0.0 0.00 0.00 0.00 42 1000.2
20260506123336 25 180 0.0 9.7 0.00 0.00 0.00 41 1000.2
20260506122836 26 180 6.4 9.7 0.00 0.00 0.00 40 1000.3
20260506122336 26 202 9.7 9.7 0.00 0.00 0.00 41 1000.2
20260506121836 26 225 0.0 0.0 0.00 0.00 0.00 41 1000.2
20260506121335 25 202 0.0 0.0 0.00 0.00 0.00 42 1000.2
20260506120835 26 180 0.0 9.7 0.00 0.00 0.00 40 1000.2
20260506120335 26 180 9.7 9.7 0.00 0.00 0.00 41 1000.1
20260506115834 25 225 0.0 0.0 0.00 0.00 0.00 42 1000.1
20260506115334 25 157 0.0 0.0 0.00 0.00 0.00 42 1000.1
20260506114834 25 135 0.0 0.0 0.00 0.00 0.00 42 1000.1
20260506114334 26 135 0.0 0.0 0.00 0.00 0.00 41 1000.2
20260506113833 26 157 0.0 0.0 0.00 0.00 0.00 41 1000.3
20260506113333 26 90 0.0 0.0 0.00 0.00 0.00 42 1000.2
20260506112833 25 112 0.0 3.2 0.00 0.00 0.00 44 1000.2
20260506112333 23 135 0.0 3.2 0.00 0.00 0.00 44 1000.3
20260506111832 23 135 0.0 4.8 0.00 0.00 0.00 45 1000.3
20260506111332 24 157 4.8 4.8 0.00 0.00 0.00 44 1000.3
20260506110832 24 180 0.0 0.0 0.00 0.00 0.00 45 1000.3
20260506110332 23 112 0.0 0.0 0.00 0.00 0.00 46 1000.3
20260506105831 23 202 0.0 9.7 0.00 0.00 0.00 45 1000.3
20260506105331 23 180 9.7 9.7 0.00 0.00 0.00 45 1000.3
20260506104831 24 157 0.0 0.0 0.00 0.00 0.00 45 1000.2
20260506104331 24 157 0.0 0.0 0.00 0.00 0.00 46 1000.0
20260506103830 24 22 0.0 6.4 0.00 0.00 0.00 46 1000.0
20260506103330 24 157 6.4 6.4 0.00 0.00 0.00 45 1000.0
20260506102830 23 180 0.0 19.3 0.00 0.00 0.00 47 1000.0
20260506102329 23 202 19.3 19.3 0.00 0.00 0.00 47 1000.0
20260506101829 22 157 6.4 6.4 0.00 0.00 0.00 47 1000.0
20260506101329 23 157 3.2 11.3 0.00 0.00 0.00 46 1000.1
20260506100829 23 135 0.0 0.0 0.00 0.00 0.00 43 1000.0
20260506100328 24 157 0.0 0.0 0.00 0.00 0.00 42 1000.0
20260506095828 25 157 0.0 14.5 0.00 0.00 0.00 41 1000.0
20260506095328 25 225 14.5 14.5 0.00 0.00 0.00 43 999.8
20260506094828 24 202 0.0 9.7 0.00 0.00 0.00 43 999.9
20260506094327 24 225 0.0 11.3 0.00 0.00 0.00 43 1000.0
20260506093827 24 247 11.3 11.3 0.00 0.00 0.00 44 999.9
20260506093327 23 157 0.0 17.7 0.00 0.00 0.00 44 999.8
20260506092827 23 157 12.9 19.3 0.00 0.00 0.00 43 999.9
20260506092326 24 157 19.3 19.3 0.00 0.00 0.00 43 999.9
20260506091826 25 180 12.9 12.9 0.00 0.00 0.00 44 999.8
20260506091326 25 180 0.0 1.6 0.00 0.00 0.00 43 999.9
20260506090825 25 202 0.0 9.7 0.00 0.00 0.00 43 999.8
20260506090325 25 225 0.0 0.0 0.00 0.00 0.00 42 999.9
20260506085825 25 247 0.0 0.0 0.00 0.00 0.00 44 999.7
20260506085325 25 180 0.0 8.0 0.00 0.00 0.00 43 999.7
20260506084824 25 157 0.0 19.3 0.00 0.00 0.00 42 999.7
20260506084324 25 135 19.3 19.3 0.00 0.00 0.00 44 999.7
20260506083824 25 157 0.0 12.9 0.00 0.00 0.00 44 999.6
20260506083324 25 225 0.0 0.0 0.00 0.00 0.00 48 999.7
20260506082823 25 157 0.0 0.0 0.00 0.00 0.00 48 999.9
20260506082323 25 135 0.0 16.1 0.00 0.00 0.00 46 999.8
20260506081823 26 157 16.1 16.1 0.00 0.00 0.00 46 1000.0
20260506081323 26 180 9.7 9.7 0.00 0.00 0.00 46 1000.0
20260506080822 26 202 0.0 0.0 0.00 0.00 0.00 47 999.8
20260506080322 26 225 0.0 0.0 0.00 0.00 0.00 50 999.9
20260506073320 21 202 0.0 0.0 0.00 0.00 0.00 55 999.9
20260506072820 21 180 0.0 0.0 0.00 0.00 0.00 56 1000.1
20260506072320 21 180 0.0 0.0 0.00 0.00 0.00 53 999.9
20260506071820 23 180 0.0 4.8 0.00 0.00 0.00 51 999.8
20260506071319 23 157 4.8 4.8 0.00 0.00 0.00 51 999.8
20260506070819 23 225 0.0 0.0 0.00 0.00 0.00 50 999.7
20260506070319 24 157 0.0 4.8 0.00 0.00 0.00 52 999.9
20260506062317 22 247 0.0 0.0 0.00 0.00 0.00 56 999.7
20260506061817 22 202 0.0 0.0 0.00 0.00 0.00 58 999.7
20260506061316 22 180 0.0 0.0 0.00 0.00 0.00 59 999.7
20260506060816 21 157 0.0 0.0 0.00 0.00 0.00 64 999.9
20260506060316 20 157 0.0 0.0 0.00 0.00 0.00 64 999.7
20260506051313 12 247 0.0 0.0 0.00 0.00 0.00 89 999.4
20260506050813 12 247 0.0 0.0 0.00 0.00 0.00 89 999.4
20260506050313 11 247 0.0 0.0 0.00 0.00 0.00 90 999.4
20260506044812 11 270 0.0 0.0 0.00 0.00 0.00 89 999.2
20260506044311 10 270 0.0 0.0 0.00 0.00 0.00 89 999.2
20260506043811 11 270 0.0 0.0 0.00 0.00 0.00 89 999.1
20260506043311 11 270 0.0 0.0 0.00 0.00 0.00 89 998.9
20260506042811 11 270 0.0 0.0 0.00 0.00 0.00 89 999.1
20260506042310 11 225 0.0 0.0 0.00 0.00 0.00 89 999.1
20260506041810 11 225 0.0 0.0 0.00 0.00 0.00 90 999.1
20260506041310 11 225 0.0 0.0 0.00 0.00 0.00 90 999.1
20260506040810 11 225 0.0 0.0 0.00 0.00 0.00 90 999.1
20260506040309 10 225 0.0 0.0 0.00 0.00 0.00 90 999.4
20260506035809 10 225 0.0 0.0 0.00 0.00 0.00 90 999.2
20260506035309 10 225 0.0 0.0 0.00 0.00 0.00 90 999.3
20260506034809 10 225 0.0 0.0 0.00 0.00 0.00 90 999.3
20260506034308 10 225 0.0 0.0 0.00 0.00 0.00 90 999.2
20260506033808 9 225 0.0 0.0 0.00 0.00 0.00 90 999.1
20260506033308 9 225 0.0 0.0 0.00 0.00 0.00 90 999.0
20260506032808 8 225 0.0 0.0 0.00 0.00 0.00 89 998.9
20260506032307 8 225 0.0 0.0 0.00 0.00 0.00 89 999.0
20260506031807 8 225 0.0 0.0 0.00 0.00 0.00 89 998.7
20260506031307 8 225 0.0 0.0 0.00 0.00 0.00 88 998.4
20260506030806 8 225 0.0 0.0 0.00 0.00 0.00 88 998.5
20260506030306 8 225 0.0 0.0 0.00 0.00 0.00 88 998.5
20260506025806 8 225 0.0 0.0 0.00 0.00 0.00 88 998.5
20260506025306 8 225 0.0 0.0 0.00 0.00 0.00 88 998.5
20260506024805 8 225 0.0 0.0 0.00 0.00 0.00 88 998.6
20260506024306 8 225 0.0 0.0 0.00 0.00 0.00 87 998.6
20260506023805 8 225 0.0 0.0 0.00 0.00 0.00 87 998.7
20260506023305 9 225 0.0 0.0 0.00 0.00 0.00 87 998.7
20260506022804 9 225 0.0 0.0 0.00 0.00 0.00 87 998.9
20260506022306 10 225 0.0 0.0 0.00 0.00 0.00 87 999.1
20260506021804 10 225 0.0 0.0 0.00 0.00 0.00 86 999.1
20260506021304 10 225 0.0 0.0 0.00 0.00 0.00 86 999.2
20260506020803 10 225 0.0 0.0 0.00 0.00 0.00 86 999.4
20260506020303 10 225 0.0 0.0 0.00 0.00 0.00 86 999.4
20260506015803 10 225 0.0 0.0 0.00 0.00 0.00 86 999.6
20260506015305 10 225 0.0 0.0 0.00 0.00 0.00 86 999.8
20260506014802 10 247 0.0 0.0 0.00 0.00 0.00 86 999.5
20260506014302 10 247 0.0 0.0 0.00 0.00 0.00 86 999.4
20260506013802 11 247 0.0 0.0 0.00 0.00 0.00 86 999.4
20260506013301 11 247 0.0 0.0 0.00 0.00 0.00 86 999.5
20260506012801 11 225 0.0 0.0 0.00 0.00 0.00 86 999.4
20260506012301 11 225 0.0 0.0 0.00 0.00 0.00 86 999.4
20260506011801 11 202 0.0 0.0 0.00 0.00 0.00 86 999.6
20260506011300 11 202 0.0 0.0 0.00 0.00 0.00 86 999.5
20260506010800 11 202 0.0 0.0 0.00 0.00 0.00 86 999.4
20260506010300 11 202 0.0 0.0 0.00 0.00 0.00 85 999.4
20260506005800 11 202 0.0 0.0 0.00 0.00 0.00 85 999.4
20260506005259 11 202 0.0 0.0 0.00 0.00 0.00 85 999.3
20260506004759 11 202 0.0 0.0 0.00 0.00 0.00 85 999.3
20260506004259 11 202 0.0 0.0 0.00 0.00 0.00 84 999.5
20260506003759 11 202 0.0 0.0 0.00 0.00 0.00 84 999.5
20260506003258 11 202 0.0 0.0 0.00 0.00 0.00 84 999.6
20260506002758 11 202 0.0 0.0 0.00 0.00 0.00 85 999.6